#timestamp,LO_Frequency,Hit,StdDev 
1562356815.7,286047001.4,N
1562356835.6,286047002.5,N
1562356855.4,286047002.0,N
1562356875.3,286047002.7,N
1562356895.1,286046999.8,N
1562356896.0,286046999.8,N
1562356915.8,286047000.0,N
1562356935.7,286047002.1,N
1562356955.5,286047002.5,N
1562356975.3,286047001.7,N
1562356995.2,286047003.8,Y
1562357015.0,286047001.3,P
1562357015.9,286047001.3,P
1562357035.8,286047004.1,P
1562357055.6,286047003.5,N
1562357075.5,286047005.6,Y
1562357095.3,286047002.0,P
1562357115.1,286047001.4,P
1562357135.9,286047004.0,P
1562357155.7,286047001.5,N
1562357175.5,286047004.0,Y
1562357195.4,286047000.3,P
1562357215.2,286047000.9,N
1562357235.1,286047000.7,N
1562357236.0,286047000.7,N
1562357255.8,286047001.2,N
1562357275.6,286046998.6,N
1562357295.5,286047001.0,N
1562357315.3,286046999.0,N
1562357335.2,286046996.9,N
1562357355.9,286046996.9,N
1562357375.7,286046997.6,N
1562357395.6,286046997.3,N
1562357415.4,286046996.1,N
1562357435.2,286046996.2,N
1562357455.1,286046993.7,Y
1562357456.0,286046993.7,P
1562357475.8,286046995.0,N
1562357495.7,286046997.5,N
1562357515.5,286046997.4,N
1562357535.4,286046998.0,N
1562357555.2,286046996.0,N
1562357575.0,286046995.6,N
1562357575.9,286046995.6,N
1562357595.8,286046993.4,Y
1562357615.6,286046998.6,P
1562357635.4,286046999.1,N
1562357655.3,286046999.5,N
1562357675.1,286046999.3,N
1562357695.9,286046996.9,N
1562357715.7,286046999.4,N
1562357735.5,286046996.5,Y
1562357755.4,286047000.5,P
1562357775.2,286046999.8,N
1562357795.0,286047000.4,N
1562357796.0,286047000.4,N
1562357815.8,286047002.0,N
1562357835.6,286047002.6,N
1562357855.5,286047002.7,N
1562357875.3,286047002.6,N
1562357895.1,286047002.6,N
1562357915.9,286047001.5,N
1562357935.7,286047001.9,N
1562357955.6,286047002.0,N
1562357975.4,286047002.2,N
1562357995.2,286047002.2,N
1562358015.1,286047004.1,Y
1562358016.0,286047004.1,P
1562358035.8,286047002.0,N
1562358055.7,286047002.8,N
1562358105.5,286047002.8,E
1562358115.5,286046998.2,N
1562358135.3,286046999.2,P
1562358155.1,286047001.2,N
1562358175.9,286047001.1,N
1562358195.7,286046999.1,N
1562358215.5,286046996.6,N
1562358235.4,286046999.1,N
1562358255.2,286046999.6,N
1562358275.1,286046996.8,N
1562358276.0,286046996.8,N
1562358295.8,286046996.8,N
1562358315.6,286046996.9,N
1562358335.5,286046995.4,N
1562358355.3,286046997.5,N
1562358375.2,286046996.0,N
1562358395.9,286046994.3,Y
1562358415.7,286046996.2,P
1562358435.6,286046995.4,P
1562358455.4,286046996.6,P
1562358475.3,286046999.4,N
1562358495.1,286046998.4,N
1562358496.0,286046998.4,N
1562358515.8,286047011.9,Y
1562358535.7,286047002.0,P
1562358555.5,286047001.1,N
1562358575.4,286047000.4,N
1562358595.2,286047004.4,N
1562358615.0,286047001.9,N
1562358615.9,286047001.9,N
1562358635.8,286047001.8,N
1562358655.6,286047001.7,N
1562358675.5,286047000.5,N
1562358695.3,286046998.2,N
1562358715.1,286046998.3,N
1562358735.9,286046998.7,N
1562358755.7,286046998.3,N
1562358775.5,286047000.7,N
1562358795.4,286047001.1,N
1562358815.2,286047000.2,N
1562358835.1,286047000.1,N
1562358836.0,286047000.1,N
1562358855.8,286047001.1,N
1562358875.6,286046998.2,N
1562358895.5,286047001.0,N
1562358915.3,286047000.1,N
1562358935.2,286047000.7,N
1562358955.9,286046999.7,N
1562358975.7,286047000.5,N
1562358995.6,286046999.7,N
1562359045.4,286047001.6,E
1562359055.4,286047002.8,N
1562359075.2,286047000.2,P
1562359095.0,286046999.7,N
1562359095.9,286046999.7,N
1562359115.8,286047002.4,N
1562359135.6,286047000.1,N
1562359155.4,286047000.5,N
1562359175.3,286047000.6,N
1562359195.1,286047000.2,N
1562359215.9,286047002.0,N
1562359235.7,286047000.2,N
1562359255.5,286046999.8,N
1562359275.4,286047002.6,N
1562359295.2,286047002.0,N
1562359315.1,286047000.6,N
1562359316.0,286047000.6,N
1562359335.8,286047000.8,N
1562359355.6,286046998.4,N
1562359375.5,286046998.3,N
1562359395.3,286046999.9,N
1562359415.1,286046999.7,N
1562359435.9,286047002.6,N
1562359455.7,286047004.4,Y
1562359475.6,286047002.5,P
1562359495.4,286047000.2,N
1562359515.2,286046998.2,N
1562359535.1,286047000.7,N
1562359536.0,286047000.7,N
1562359555.8,286046999.7,N
1562359575.7,286047000.3,N
1562359595.5,286047000.7,N
1562359615.3,286047001.2,N
1562359635.2,286046998.5,N
1562359655.0,286046998.4,N
1562359655.9,286046998.4,N
1562359675.8,286046998.4,N
1562359695.6,286046998.2,N
1562359715.4,286047001.1,N
1562359735.3,286047000.5,N
1562359755.1,286047000.9,N
1562359775.9,286047002.8,N
1562359795.7,286046999.8,N
1562359815.5,286046999.8,N
1562359835.4,286047002.6,N
1562359855.2,286047000.8,N
1562359875.0,286046999.7,N
1562359875.9,286046999.7,N
1562359895.8,286047000.9,N
1562359915.6,286046998.6,N
1562359935.5,286046998.8,N
1562359955.3,286046998.9,N
1562359975.1,286047000.6,N
1562359995.9,286046999.9,N
1562360015.7,286047000.1,N
1562360035.6,286047000.2,N
1562360055.4,286047011.9,Y
1562360075.2,286047003.6,P
1562360095.1,286047002.9,N
1562360096.0,286047002.9,N
1562360115.8,286047002.9,N
1562360135.7,286047006.0,Y
1562360155.5,286047002.2,P
1562360175.3,286047004.1,P
1562360195.2,286047003.1,P
1562360215.0,286047003.5,Y
1562360215.9,286047003.5,P
1562360235.8,286047002.8,P
1562360255.6,286047002.2,P
1562360275.4,286047000.1,N
1562360295.3,286047000.2,N
1562360315.1,286047000.1,N
1562360335.8,286047000.8,N
1562360355.7,286047001.1,N
1562360375.5,286047000.9,N
1562360395.4,286046998.4,N
